[[{"header":{"parameterUnit":"m.s-1","parameterCategory":1,"la1":30.2991,"la2":30.254,"lo1":-89.0895,"lo2":-89.0444,"dy":0.0017,"dx":0.0017,"nx":28,"ny":28,"refTime":"2024-04-14T09:00:00:Z","depth":0,"parameterNumber":2,"parameterNumberName":"U-component_of_WINDS"},"data":[0,0,0,0,0,0,0,0,0,0,0,0,0,0,0,0,0,0,0,0,0,0,0,0,0,0,0,0,0,0,0,0,0,0,0,0,0,0,0,0,0,0,0,0,0,0,0,0,0,0,0,0,0,0,0,0,0,0,-2.3718,-2.3718,0,-2.3695,-2.3695,-2.3695,-2.3643,-2.3642,-2.3641,-2.364,-2.3618,-2.3619,-2.3619,0,0,0,0,0,0,0,0,0,0,0,0,0,-2.3719,-2.3719,-2.3718,-2.3718,-2.3717,-2.3695,-2.3695,-2.3695,-2.3643,-2.3642,-2.3641,-2.364,-2.3618,-2.3619,-2.3619,0,0,0,0,0,0,0,0,0,0,0,0,0,-2.371,-2.3719,-2.3718,-2.3689,-2.3686,-2.3695,-2.3695,-2.3695,-2.3644,-2.3642,-2.3641,-2.3639,-2.3618,-2.3619,-2.3619,-2.3655,0,0,-2.3621,-2.3622,0,0,0,0,0,0,0,0,-2.371,-2.371,-2.3694,-2.3691,-2.3688,-2.367,-2.3687,-2.3681,-2.3644,-2.366,-2.364,-2.3638,-2.3637,-2.3636,-2.3635,-2.3654,-2.3653,-2.3621,-2.3622,-2.3622,-2.3622,0,0,0,0,0,0,0,-2.3711,-2.371,-2.3709,-2.3693,-2.369,-2.3678,-2.3675,-2.3686,-2.3658,-2.3658,-2.3655,-2.3653,-2.3635,-2.3635,-2.3635,-2.3653,-2.3621,-2.3622,-2.3622,-2.3623,-2.37,-2.3702,0,0,0,0,0,0,-2.3715,-2.3711,-2.371,-2.3708,-2.3695,-2.3679,-2.3676,-2.3678,-2.3658,-2.3653,-2.3654,-2.365,-2.3635,-2.3634,-2.3634,-2.3674,-2.3622,-2.3623,-2.3623,-2.3699,-2.3701,-2.3703,0,0,0,0,0,0,-2.3716,-2.3716,-2.3711,-2.3709,-2.3707,-2.3681,-2.3683,-2.3678,-2.3678,-2.3654,-2.3649,-2.3659,-2.3633,-2.3633,-2.365,-2.3672,-2.3623,-2.3623,-2.3697,-2.3699,-2.3702,-2.3755,0,0,0,0,0,0,-2.3716,-2.3716,-2.3729,-2.3709,-2.3707,-2.3727,-2.3685,-2.3679,-2.3679,-2.3674,-2.3657,-2.3653,-2.3632,-2.365,-2.3651,-2.3672,-2.3624,-2.3695,-2.3698,-2.3701,-2.3751,-2.3759,-2.3766,0,0,0,0,0,-2.3716,-2.3745,-2.373,-2.373,-2.3723,-2.3728,-2.3727,-2.3702,-2.3681,-2.3693,-2.3679,-2.3653,-2.367,-2.3652,-2.3653,-2.3675,-2.3693,-2.3697,-2.3701,-2.3748,-2.3757,-2.3766,0,0,0,0,0,0,-2.3768,-2.3742,-2.3725,-2.3748,-2.3741,-2.372,-2.3735,-2.3713,-2.3712,-2.3708,-2.3677,-2.3674,-2.3696,-2.3687,-2.3667,-2.3709,-2.3678,-2.3682,-2.3713,-2.3722,-2.3729,-2.373,-2.3624,0,0,0,0,0,-2.3782,-2.3788,-2.3766,-2.3788,-2.3786,-2.3761,-2.3763,-2.3744,-2.3736,-2.3733,-2.3719,-2.3712,-2.3716,-2.3719,-2.3721,-2.375,-2.3746,-2.3766,-2.3774,-2.378,-2.3783,-2.3798,-2.3807,-2.3715,-2.3715,-2.3715,0,0,-2.3811,-2.3798,-2.3804,-2.3799,-2.3791,-2.3798,-2.3759,-2.3769,-2.3774,-2.3734,-2.3749,-2.374,-2.373,-2.3754,-2.3763,-2.3747,-2.3808,-2.3785,-2.379,-2.379,-2.3803,-2.3812,-2.382,-2.3718,-2.3717,-2.3717,0,0,-2.3868,-2.3859,-2.3877,-2.387,-2.3859,-2.3842,-2.3847,-2.3829,-2.3821,-2.3836,-2.3806,-2.3813,-2.382,-2.3814,-2.3813,-2.3869,-2.3846,-2.3871,-2.3909,-2.3924,-2.3931,-2.3937,-2.3957,-2.3965,-2.3875,-2.3875,-2.3875,0,-2.3906,-2.3916,-2.3889,-2.39,-2.3899,-2.3864,-2.3882,-2.3877,-2.3867,-2.3867,-2.385,-2.3858,-2.3849,-2.3871,-2.3885,-2.3885,-2.3889,-2.3872,-2.3932,-2.3938,-2.3944,-2.3962,-2.397,-2.3878,-2.3878,-2.3877,-2.3877,0,-2.3962,-2.397,-2.3986,-2.3977,-2.3978,-2.3993,-2.3969,-2.3973,-2.3955,-2.3941,-2.3958,-2.3946,-2.3945,-2.3949,-2.3932,-2.3969,-2.3959,-2.3938,-2.3905,-2.3956,-2.3973,-2.398,-2.3882,-2.3881,-2.388,-2.388,0,0,-2.405,-2.4026,-2.4033,-2.4028,-2.4014,-2.4019,-2.4034,-2.4033,-2.4037,-2.4032,-2.4043,-2.405,-2.403,-2.4028,-2.401,-2.4024,-2.4069,-2.4,-2.3999,-2.4013,-2.4109,-2.4125,-2.4133,-2.4054,-2.4055,-2.4056,-2.4109,0,-2.4102,-2.4123,-2.4101,-2.4127,-2.4134,-2.4101,-2.4113,-2.4106,-2.4094,-2.4099,-2.4085,-2.4091,-2.4064,-2.4063,-2.4075,-2.4061,-2.4088,-2.4057,-2.4064,-2.4065,-2.4066,-2.4142,-2.4158,-2.4209,-2.4116,-2.4117,-2.4118,0,-2.4166,-2.4163,-2.4191,-2.4175,-2.4177,-2.4188,-2.4186,-2.419,-2.4182,-2.4173,-2.4171,-2.415,-2.4163,-2.4133,-2.4151,-2.4131,-2.4133,-2.4127,-2.4128,-2.4127,-2.4093,-2.4142,-2.4224,-2.4232,-2.4128,-2.4127,-2.4126,0,-2.4226,-2.423,-2.4246,-2.4244,-2.4226,-2.4235,-2.4228,-2.4219,-2.422,-2.4218,-2.4219,-2.4219,-2.4219,-2.422,-2.42,-2.418,-2.422,-2.4189,-2.4213,-2.4213,-2.4221,-2.4221,-2.4304,-2.4225,-2.4225,-2.4225,-2.4224,0,-2.4286,-2.4304,-2.4273,-2.4283,-2.4302,-2.4277,-2.4296,-2.4287,-2.4279,-2.4287,-2.4259,-2.4268,-2.424,-2.4246,-2.4231,-2.4248,-2.4249,-2.4241,-2.4237,-2.4243,-2.4244,-2.4243,-2.4238,-2.4227,-2.4226,-2.4226,-2.4225,0,-2.4355,-2.4336,-2.4351,-2.4334,-2.433,-2.4345,-2.433,-2.4339,-2.4326,-2.4337,-2.4338,-2.4317,-2.4322,-2.4302,-2.4305,-2.4294,-2.432,-2.431,-2.4322,-2.4319,-2.4344,-2.4341,-2.4428,-2.4438,-2.4354,-2.4355,-2.4355,0,-2.4394,-2.4407,-2.4391,-2.4394,-2.4389,-2.4395,-2.4396,-2.4372,-2.4374,-2.4366,-2.4377,-2.438,-2.4381,-2.4392,-2.4377,-2.4379,-2.4368,-2.4399,-2.4368,-2.4374,-2.4368,-2.4367,-2.4368,-2.4405,-2.4406,-2.4407,-2.4407,0,-2.4466,-2.4456,-2.4458,-2.4457,-2.4459,-2.4457,-2.4453,-2.4458,-2.4432,-2.4436,-2.4441,-2.4442,-2.4445,-2.4449,-2.4448,-2.4441,-2.442,-2.4417,-2.4423,-2.4429,-2.4435,-2.4431,-2.4338,-2.4415,-2.4414,-2.4414,-2.4413,-2.4413,-2.4521,-2.453,-2.4521,-2.4524,-2.4519,-2.4517,-2.4524,-2.4512,-2.4516,-2.4515,-2.4502,-2.451,-2.4502,-2.4499,-2.4495,-2.4501,-2.4487,-2.4495,-2.4497,-2.4499,-2.4503,-2.4435,-2.4501,-2.4501,-2.4501,-2.4501,-2.45,0,-2.459,-2.4582,-2.4586,-2.4581,-2.4585,-2.4565,-2.456,-2.4564,-2.4571,-2.4566,-2.4568,-2.4574,-2.4578,-2.4564,-2.4566,-2.4574,-2.4565,-2.4575,-2.4574,-2.4573,-2.4516,-2.4511,-2.4583,-2.4583,-2.4583,-2.4583,-2.4583,-2.4583,-2.4626,-2.4642,-2.4631,-2.4644,-2.4636,-2.4643,-2.4642,-2.464,-2.4636,-2.4644,-2.4647,-2.4638,-2.463,-2.4631,-2.4634,-2.463,-2.4631,-2.4646,-2.4638,-2.4585,-2.4577,-2.4569,-2.4564,-2.4646,-2.4646,-2.4694,-2.4695,-2.4695]},{"header":{"parameterUnit":"m.s-1","parameterCategory":1,"la1":30.2991,"la2":30.254,"lo1":-89.0895,"lo2":-89.0444,"dy":0.0017,"dx":0.0017,"nx":28,"ny":28,"refTime":"2024-04-14T09:00:00:Z","depth":0,"parameterNumber":3,"parameterNumberName":"V-component_of_WINDS"},"data":[0,0,0,0,0,0,0,0,0,0,0,0,0,0,0,0,0,0,0,0,0,0,0,0,0,0,0,0,0,0,0,0,0,0,0,0,0,0,0,0,0,0,0,0,0,0,0,0,0,0,0,0,0,0,0,0,0,0,2.8087,2.8086,0,2.7992,2.7991,2.799,2.7939,2.7939,2.7939,2.7939,2.7836,2.7834,2.7831,0,0,0,0,0,0,0,0,0,0,0,0,0,2.8218,2.8216,2.8087,2.8085,2.8084,2.7992,2.7991,2.7989,2.7939,2.7939,2.7939,2.7939,2.7837,2.7834,2.7831,0,0,0,0,0,0,0,0,0,0,0,0,0,2.8146,2.8215,2.8087,2.8048,2.8044,2.7992,2.7991,2.7989,2.7939,2.7939,2.7939,2.7939,2.7838,2.7834,2.783,2.7808,0,0,2.7818,2.7816,0,0,0,0,0,0,0,0,2.815,2.8141,2.8055,2.8051,2.8046,2.7977,2.7999,2.7928,2.7939,2.7979,2.7939,2.7939,2.7883,2.7875,2.7857,2.7803,2.7799,2.7818,2.7815,2.7814,2.7812,0,0,0,0,0,0,0,2.8155,2.8145,2.8049,2.8054,2.8048,2.8033,2.8023,2.7986,2.7932,2.7975,2.7971,2.7961,2.788,2.7861,2.7855,2.7797,2.7818,2.7814,2.7812,2.781,2.7719,2.7719,0,0,0,0,0,0,2.8167,2.8149,2.8052,2.8046,2.8099,2.8031,2.802,2.7999,2.7933,2.7923,2.7961,2.7959,2.7868,2.7859,2.7851,2.782,2.7814,2.781,2.7808,2.7719,2.7719,2.7719,0,0,0,0,0,0,2.817,2.8159,2.8056,2.8097,2.8082,2.8029,2.8007,2.7997,2.7979,2.7922,2.7912,2.7952,2.7868,2.7856,2.7819,2.7816,2.7808,2.7804,2.7719,2.7719,2.7719,2.7759,0,0,0,0,0,0,2.8174,2.816,2.8153,2.8097,2.808,2.8028,2.8006,2.7996,2.7973,2.7969,2.7911,2.7901,2.7867,2.7826,2.7815,2.781,2.7801,2.7719,2.7719,2.7719,2.7758,2.776,2.7763,0,0,0,0,0,2.8179,2.8167,2.8153,2.8141,2.807,2.8028,2.8018,2.798,2.7973,2.7964,2.7927,2.7903,2.7818,2.7822,2.781,2.7804,2.7719,2.7719,2.7719,2.7757,2.776,2.7762,0,0,0,0,0,0,2.8222,2.8159,2.8142,2.8112,2.8076,2.8019,2.8007,2.7985,2.7948,2.7946,2.7899,2.7886,2.7853,2.7825,2.7831,2.7778,2.7766,2.7764,2.7799,2.7801,2.7803,2.7811,2.7798,0,0,0,0,0,2.8228,2.8201,2.8146,2.8125,2.8108,2.8061,2.8041,2.8015,2.7974,2.7958,2.7919,2.7879,2.7843,2.782,2.7784,2.7753,2.7739,2.7743,2.7745,2.7748,2.7746,2.7726,2.7727,2.7719,2.7719,2.7719,0,0,2.824,2.8202,2.8187,2.8132,2.8101,2.8072,2.8048,2.8018,2.7995,2.7953,2.7916,2.7886,2.7838,2.7804,2.7787,2.7779,2.7745,2.7747,2.775,2.7747,2.7726,2.7727,2.7728,2.7719,2.7719,2.7719,0,0,2.8247,2.8216,2.8195,2.8165,2.8118,2.8087,2.8082,2.8028,2.8007,2.797,2.7937,2.7908,2.7848,2.7815,2.779,2.7785,2.7761,2.7774,2.7786,2.7768,2.7768,2.7769,2.7766,2.7766,2.7773,2.7773,2.7773,0,2.8267,2.8224,2.8186,2.8159,2.8135,2.8097,2.8073,2.8045,2.7988,2.7972,2.7964,2.7887,2.7852,2.781,2.7808,2.779,2.7781,2.778,2.7772,2.7772,2.7771,2.7768,2.7767,2.7775,2.7774,2.7774,2.7774,0,2.8251,2.8221,2.8209,2.8158,2.8132,2.8107,2.8063,2.8042,2.8018,2.7987,2.7948,2.7905,2.7859,2.7847,2.7823,2.78,2.7797,2.7781,2.7768,2.7775,2.7771,2.7769,2.7777,2.7777,2.7776,2.7776,0,0,2.8283,2.8211,2.8207,2.8183,2.8129,2.8104,2.8076,2.8033,2.8015,2.7977,2.7951,2.7901,2.7886,2.7858,2.783,2.7813,2.7811,2.7799,2.7797,2.7802,2.7782,2.7794,2.7793,2.7795,2.7794,2.7794,2.7786,0,2.8282,2.8233,2.8197,2.816,2.8132,2.8095,2.807,2.8033,2.8003,2.7973,2.7939,2.7904,2.7887,2.787,2.7852,2.7815,2.7806,2.7815,2.7768,2.7767,2.7782,2.7791,2.7804,2.7799,2.7784,2.7784,2.7784,0,2.8274,2.824,2.8201,2.815,2.8136,2.8115,2.8072,2.8044,2.8001,2.798,2.7949,2.792,2.7887,2.7876,2.7829,2.7836,2.7815,2.7793,2.7792,2.7786,2.7776,2.7785,2.7796,2.7795,2.7781,2.7781,2.7781,0,2.8301,2.8244,2.8213,2.8194,2.8133,2.8119,2.8093,2.8049,2.8026,2.7987,2.7971,2.7929,2.7906,2.7873,2.7833,2.7829,2.7789,2.7776,2.7769,2.777,2.7762,2.7763,2.777,2.775,2.775,2.775,2.775,0,2.8303,2.8281,2.8224,2.8206,2.8179,2.8137,2.8111,2.8081,2.8043,2.8016,2.798,2.7955,2.7904,2.7872,2.784,2.7805,2.7794,2.7775,2.7767,2.7778,2.7781,2.7764,2.7763,2.7749,2.7749,2.7749,2.7749,0,2.8329,2.829,2.8254,2.82,2.8186,2.8168,2.8121,2.81,2.8068,2.8034,2.8024,2.7973,2.7934,2.789,2.7836,2.7814,2.7781,2.7769,2.7796,2.7792,2.7788,2.7789,2.7783,2.778,2.7762,2.7763,2.7763,0,2.8333,2.8315,2.8259,2.824,2.8215,2.8184,2.816,2.8117,2.8093,2.8042,2.8027,2.7986,2.795,2.7888,2.7845,2.7803,2.779,2.7791,2.7783,2.7795,2.7789,2.7791,2.7788,2.7793,2.7793,2.7794,2.7794,0,2.8344,2.8326,2.8294,2.8255,2.8228,2.8194,2.8159,2.8145,2.8095,2.8069,2.803,2.8002,2.7947,2.7906,2.7858,2.7829,2.7802,2.7797,2.7793,2.7804,2.7821,2.7811,2.7802,2.7797,2.7797,2.7797,2.7796,2.7796,2.8358,2.8341,2.8299,2.8264,2.8234,2.8202,2.8179,2.8145,2.8112,2.8066,2.8042,2.8002,2.7957,2.7891,2.7863,2.7829,2.7821,2.7816,2.7814,2.7814,2.7816,2.7827,2.782,2.782,2.782,2.782,2.782,0,2.8368,2.8339,2.8307,2.8261,2.8233,2.8212,2.8172,2.815,2.8116,2.8077,2.8044,2.7997,2.7957,2.7911,2.7867,2.7849,2.7836,2.7839,2.7839,2.7833,2.7827,2.7834,2.785,2.785,2.785,2.785,2.785,2.785,2.8369,2.8338,2.8315,2.8267,2.8238,2.82,2.8179,2.8149,2.8118,2.8069,2.8036,2.8007,2.7964,2.7917,2.7878,2.7865,2.785,2.7857,2.7841,2.7836,2.7833,2.7831,2.7838,2.7854,2.7854,2.7849,2.7849,2.7849]}]]